Medford, WI

7:43 PM CST on February 23, 2017 (GMT -0600)
Taylor County

Weather History for KMDZ - September, 2014

Change the Weather History Date:

Tuesday, September 23, 2014

  Actual Average Record
Temperature  
Mean Temperature 54 °F -  
Max Temperature 70 °F 60 °F 80 °F (1958)
Min Temperature 39 °F 39 °F 25 °F (1974)
Degree Days  
Heating Degree Days 10    
Growing Degree Days 4 (Base 50)    
Moisture  
Dew Point 48 °F    
Average Humidity 80    
Maximum Humidity 100    
Minimum Humidity 48    
Precipitation  
Precipitation 0.00 in - - ()
Sea Level Pressure  
Sea Level Pressure 30.25 in    
Wind  
Wind Speed 2 mph (South)    
Max Wind Speed 10 mph    
Max Gust Speed -    
Visibility 7 miles    
Events Fog    
Averages and records for this station are not official NWS values.
T = Trace of Precipitation, MM = Missing Value Source: NWS Daily Summary

Daily Weather History Graph

Daily Weather History Graph

Search for Another Location

Airport or City:

Trip Planner

Search our weather history database for the weather conditions in past years. The results will help you decide how hot, cold, wet, or windy it might be!

Date:

Astronomy

Sep. 23, 2014 Rise Set
Actual Time 6:49 AM CDT 6:56 PM CDT
Civil Twilight 6:20 AM CDT 7:26 PM CDT
Nautical Twilight 5:45 AM CDT 8:00 PM CDT
Astronomical Twilight 5:10 AM CDT 8:35 PM CDT
Moon 6:13 AM CDT (9/23) 6:34 PM CDT (9/23)
Length of Visible Light 13h 05m
Length of Day
12h 07m
Waning Crescent, 0% of the Moon is Illuminated
Sep 23
Waning Crescent
Sep 24
New
Oct 1
First Quarter
Oct 8
Full
Oct 15
Last Quarter

Hourly Weather History & Observations

Time (CDT) Temp. Dew Point Humidity Pressure Visibility Wind Dir Wind Speed Gust Speed Precip Events Conditions
12:15 AM 46.9 °F 46.4 °F 98% 30.21 in 7.0 mi Calm Calm - N/A   Clear
12:35 AM 44.4 °F 43.9 °F 98% 30.21 in 2.5 mi Calm Calm - N/A   Clear
12:55 AM 44.8 °F 44.6 °F 99% 30.21 in 0.5 mi Calm Calm - N/A Fog Fog
1:15 AM 45.5 °F 45.3 °F 99% 30.22 in 0.2 mi Calm Calm - N/A Fog Fog
1:35 AM 45.3 °F 45.1 °F 99% 30.22 in 0.2 mi Calm Calm - N/A Fog Fog
1:55 AM 44.2 °F 44.2 °F 100% 30.22 in 3.0 mi Calm Calm - N/A   Clear
2:15 AM 41.7 °F 41.5 °F 99% 30.22 in 0.2 mi Calm Calm - N/A Fog Fog
2:35 AM 41.9 °F 41.9 °F 100% 30.22 in 0.2 mi Calm Calm - N/A Fog Fog
2:55 AM 44.1 °F 43.9 °F 99% 30.22 in 0.2 mi Calm Calm - N/A Fog Fog
3:15 AM 42.3 °F 42.1 °F 99% 30.22 in 0.5 mi Calm Calm - N/A Fog Fog
3:35 AM 44.2 °F 44.2 °F 100% 30.22 in 0.2 mi Calm Calm - N/A Fog Fog
3:55 AM 42.4 °F 42.4 °F 100% 30.22 in 1.0 mi Calm Calm - N/A   Mist
4:15 AM 41.4 °F 41.4 °F 100% 30.23 in 0.5 mi Calm Calm - N/A Fog Fog
4:35 AM 40.8 °F 40.6 °F 99% 30.23 in 2.5 mi Calm Calm - N/A   Clear
4:55 AM 41.9 °F 41.9 °F 100% 30.23 in 1.5 mi Calm Calm - N/A   Mist
5:15 AM 41.2 °F 41.2 °F 100% 30.24 in 0.2 mi Calm Calm - N/A Fog Fog
5:35 AM 40.1 °F 40.1 °F 100% 30.24 in 1.5 mi Calm Calm - N/A   Mist
5:55 AM 40.3 °F 40.3 °F 100% 30.24 in 7.0 mi Calm Calm - N/A   Clear
6:15 AM 40.1 °F 39.9 °F 99% 30.25 in 7.0 mi Calm Calm - N/A   Clear
6:35 AM 39.7 °F 39.7 °F 100% 30.26 in 4.0 mi Calm Calm - N/A   Clear
6:55 AM 40.3 °F 40.3 °F 100% 30.26 in 0.2 mi Calm Calm - N/A Fog Fog
7:15 AM 41.5 °F 41.5 °F 100% 30.26 in 5.0 mi Calm Calm - N/A   Clear
7:35 AM 42.8 °F 42.8 °F 100% 30.26 in 7.0 mi Calm Calm - N/A   Clear
7:55 AM 45.9 °F 45.9 °F 100% 30.27 in 3.0 mi Calm Calm - N/A   Clear
8:15 AM 48.7 °F 48.6 °F 99% 30.27 in 10.0 mi Calm Calm - N/A   Clear
8:35 AM 51.3 °F 50.4 °F 97% 30.27 in 10.0 mi Calm Calm - N/A   Clear
8:55 AM 54.0 °F 51.8 °F 92% 30.27 in 10.0 mi Calm Calm - N/A   Clear
9:15 AM 56.8 °F 51.8 °F 83% 30.28 in 10.0 mi SSW 3.5 mph - N/A   Clear
9:35 AM 59.7 °F 52.7 °F 78% 30.28 in 10.0 mi Calm Calm - N/A   Clear
9:55 AM 61.7 °F 51.1 °F 68% 30.29 in 10.0 mi WSW 4.6 mph - N/A   Clear
10:15 AM 63.0 °F 50.9 °F 65% 30.29 in 10.0 mi SSW 3.5 mph - N/A   Clear
10:35 AM 64.4 °F 51.4 °F 63% 30.29 in 10.0 mi SW 3.5 mph - N/A   Clear
10:55 AM 65.7 °F 50.9 °F 59% 30.29 in 10.0 mi SSW 4.6 mph - N/A   Clear
11:15 AM 67.1 °F 51.1 °F 56% 30.29 in 10.0 mi SW 4.6 mph - N/A   Clear
11:35 AM 67.5 °F 51.1 °F 56% 30.28 in 10.0 mi WSW 6.9 mph - N/A   Clear
12:15 PM 68.5 °F 49.3 °F 50% 30.29 in 10.0 mi SW 9.2 mph - N/A   Clear
12:35 PM 68.7 °F 48.7 °F 49% 30.28 in 10.0 mi SW 8.1 mph - N/A   Clear
12:55 PM 69.3 °F 50.5 °F 51% 30.28 in 10.0 mi SW 6.9 mph - N/A   Clear
1:15 PM 69.6 °F 49.6 °F 49% 30.28 in 10.0 mi SSW 8.1 mph - N/A   Clear
1:35 PM 69.6 °F 49.3 °F 48% 30.27 in 10.0 mi SSW 10.4 mph - N/A   Clear
1:55 PM 70.2 °F 50.7 °F 50% 30.27 in 10.0 mi SW 8.1 mph - N/A   Clear
2:15 PM 70.0 °F 50.4 °F 50% 30.26 in 10.0 mi South 10.4 mph - N/A   Clear
2:55 PM 70.2 °F 50.4 °F 49% 30.26 in 10.0 mi South 10.4 mph - N/A   Clear
3:15 PM 70.2 °F 50.9 °F 50% 30.25 in 10.0 mi SSW 6.9 mph - N/A   Clear
3:35 PM 70.0 °F 50.7 °F 50% 30.24 in 10.0 mi SSE 9.2 mph - N/A   Clear
3:55 PM 70.3 °F 50.0 °F 48% 30.24 in 10.0 mi South 9.2 mph - N/A   Clear
4:15 PM 70.3 °F 49.8 °F 48% 30.24 in 10.0 mi South 6.9 mph - N/A   Clear
4:35 PM 70.0 °F 50.2 °F 49% 30.24 in 10.0 mi SSW 8.1 mph - N/A   Clear
4:55 PM 69.1 °F 51.8 °F 54% 30.23 in 10.0 mi South 5.8 mph - N/A   Clear
5:15 PM 67.8 °F 51.4 °F 56% 30.23 in 10.0 mi South 8.1 mph - N/A   Clear
5:35 PM 67.1 °F 51.6 °F 57% 30.24 in 10.0 mi South 4.6 mph - N/A   Clear
5:55 PM 66.9 °F 51.6 °F 58% 30.23 in 10.0 mi South 5.8 mph - N/A   Clear
6:15 PM 64.2 °F 52.7 °F 66% 30.23 in 10.0 mi Calm Calm - N/A   Clear
6:35 PM 61.7 °F 53.2 °F 74% 30.23 in 10.0 mi SSE 3.5 mph - N/A   Clear
6:55 PM 59.9 °F 52.7 °F 77% 30.22 in 10.0 mi SE 3.5 mph - N/A   Clear
7:15 PM 57.6 °F 52.0 °F 82% 30.22 in 4.0 mi SE 3.5 mph - N/A   Haze
7:35 PM 56.5 °F 51.6 °F 84% 30.24 in 7.0 mi SSE 3.5 mph - N/A   Clear
7:55 PM 55.6 °F 51.1 °F 85% 30.24 in 10.0 mi SSE 3.5 mph - N/A   Clear
8:15 PM 56.1 °F 50.2 °F 80% 30.24 in 10.0 mi SE 3.5 mph - N/A   Clear
8:35 PM 54.7 °F 49.6 °F 83% 30.24 in 10.0 mi Calm Calm - N/A   Clear
8:55 PM 54.1 °F 50.0 °F 86% 30.24 in 10.0 mi SSE 3.5 mph - N/A   Clear
9:15 PM 53.1 °F 50.0 °F 89% 30.25 in 10.0 mi SSE 3.5 mph - N/A   Clear
9:35 PM 54.1 °F 50.0 °F 86% 30.25 in 10.0 mi SSE 3.5 mph - N/A   Clear
9:55 PM 54.3 °F 49.6 °F 84% 30.26 in 10.0 mi SSE 3.5 mph - N/A   Clear
10:15 PM 52.9 °F 49.3 °F 88% 30.26 in 10.0 mi SSE 3.5 mph - N/A   Clear
10:35 PM 52.7 °F 49.3 °F 88% 30.26 in 10.0 mi SSE 3.5 mph - N/A   Clear
10:55 PM 51.8 °F 48.9 °F 90% 30.27 in 10.0 mi SSE 3.5 mph - N/A   Clear
11:15 PM 50.9 °F 48.4 °F 91% 30.27 in 10.0 mi SSE 4.6 mph - N/A   Clear
11:35 PM 51.3 °F 48.7 °F 91% 30.27 in 10.0 mi SSE 4.6 mph - N/A   Clear
11:55 PM 50.5 °F 48.2 °F 92% 30.27 in 10.0 mi SSE 4.6 mph - N/A   Clear